Flag Weather past 2 weeks in Fargo, North Dakota, U.S.A.

Now
17 °F

Clear.


Feels Like: 8 °F
Forecast: 10 / 30 °F
Wind: 7 mph from Southeast

Location: Hector International Airport

Current Time: Nov 28, 2014 at 6:28:05 PM

Latest Report: Nov 28, 2014 at 5:53 PM


Visibility: 10 mi

Pressure: 29.80 "Hg

Humidity: 70%

Dew point: 9 °F

Location of FargoLocation

Historic Weather in Fargo — Graph

°F

Fargo temperature yesterday

Maximum temperature yesterday: 11 °F (at 11:53 PM)
Minimum temperature yesterday: -13 °F (at 4:53 AM)
Average temperature yesterday: 1 °F

Past Weeks' High & Low Weather Summary

 TemperatureHumidityPressure
High45 °F (Nov 22, 1:53 PM)92% (Nov 23, 2:53 AM)30.66 "Hg (Nov 23, 2:53 AM)
Low-13 °F (Nov 27, 4:53 AM)43% (Nov 20, 3:53 PM)29.38 "Hg (Nov 22, 10:00 PM)
Average17 °F71%30.04 "Hg
* Reported Nov 13 4:04 PM — Nov 28 4:53 PM, Fargo, Weather by CustomWeather, © 2014

Note: Actual official high and low records may vary slightly from our data, if they occured in-between our weather recording intervals... More about our weather records

Advertising

Fargo weather history for previous 24 hours

 ConditionsComfort  
Time TempWeatherWind HumidityBarometerVisibility
4:53 PM
Nov 28
17 °FClear.7 mph70%29.80 "Hg10 mi
3:53 PM18 °FScattered clouds.9 mph71%29.83 "Hg10 mi
2:53 PM18 °FCloudy.9 mph71%29.85 "Hg10 mi
1:53 PM18 °FCloudy.6 mph71%29.88 "Hg9 mi
12:53 PM16 °FOvercast.9 mph71%29.89 "Hg10 mi
11:53 AM16 °FMore clouds than sun.9 mph71%29.93 "Hg10 mi
10:53 AM16 °FOvercast.7 mph71%29.97 "Hg10 mi
9:53 AM15 °FMore clouds than sun.10 mph67%29.99 "Hg10 mi
8:53 AM14 °FMore clouds than sun.9 mph73%29.99 "Hg10 mi
7:53 AM14 °FMostly cloudy.8 mph71%30.02 "Hg10 mi
6:53 AM13 °FOvercast.6 mph74%30.03 "Hg8 mi
5:53 AM13 °FOvercast.9 mph70%30.06 "Hg10 mi
4:53 AM13 °FOvercast.8 mph74%30.06 "Hg7 mi
3:53 AM13 °FOvercast.9 mph74%30.09 "Hg10 mi
2:53 AM13 °FMostly cloudy.9 mph74%30.08 "Hg10 mi
1:53 AM12 °FLow clouds.13 mph77%30.10 "Hg5 mi
12:53 AM12 °FLight snow. Overcast.12 mph77%30.14 "Hg2 mi
11:53 PM
Nov 27
11 °FMostly cloudy.13 mph77%30.16 "Hg6 mi
10:59 PM10 °FLight snow. Mostly cloudy.13 mph76%30.11 "Hg2 mi
9:53 PM9 °FLight snow. Overcast.13 mph76%30.24 "Hg1 mi
8:53 PM9 °FLight snow. Mostly cloudy.8 mph73%30.27 "Hg4 mi
7:53 PM9 °FLight snow. Overcast.14 mph64%30.29 "Hg2 mi
6:53 PM9 °FMostly cloudy.12 mph61%30.31 "Hg10 mi
Weather by CustomWeather, © 2014

See weather overviewHow to use our weather pages